Location: Paris
(48.6709°N, 2.3750°E)
Time: 12:49:39
(UTC+02:00)

NOAA 18 - Pass Details

Date: 01 July 2022
Orbit: 839 x 860 km, 98.9° (Epoch: 10 August)

Event Time Altitude Azimuth Distance (km) Brightness Sun altitude
Exits shadow 00:50:52 - 221° (SW) 2,771 7.6 -16.8°
Reaches altitude 10° 00:51:58 10° 230° (SW) 2,480 7.4 -16.9°
Maximum altitude 00:55:36 18° 271° (W) 1,993 7.3 -17.0°
Drops below altitude 10° 00:59:16 10° 313° (NW) 2,500 8.5 -17.2°
Sets 01:02:30 0° 332° (NNW) 3,445 9.9 -17.3°
